DLH7T EDDM-EDDB

Flight info

Callsign DLH7T
Flight time 0h 50m
Altitude 29000
Route AKINI1E AKINI Y104 MAMOR L132 RUDNO T203 TIVDA DCT ETVIS DCT NAVEK DCT GAVLI T203 ATGUP ATGUP1R
Aircraft A320/M-SDE2E3FGIJ1LORWXYZ/HB1

Departure

Time 2026-05-08 05:14
Airport Munich Airport (EDDM)

Arrival

Time 2026-05-08 06:05
Airport Berlin Brandenburg Airport (EDDB)
Time Latitude Longitude Altitude Speed Heading
2026-05-08 04:58 48.35787 11.79242 1485 ft 0 kts 263°
2026-05-08 05:00 48.35788 11.79247 1485 ft 3 kts 263°
2026-05-08 05:00 48.35791 11.79287 1471 ft 4 kts 263°
2026-05-08 05:00 48.35794 11.79327 1475 ft 4 kts 263°
2026-05-08 05:00 48.35797 11.79368 1478 ft 4 kts 263°
2026-05-08 05:01 48.35800 11.79400 1477 ft 4 kts 262°
2026-05-08 05:01 48.35807 11.79437 1473 ft 4 kts 228°
2026-05-08 05:01 48.35828 11.79456 1481 ft 4 kts 181°
2026-05-08 05:01 48.35851 11.79453 1476 ft 2 kts 173°
2026-05-08 05:02 48.35853 11.79453 1477 ft 0 kts 173°
2026-05-08 05:03 48.35822 11.79459 1480 ft 6 kts 173°
2026-05-08 05:04 48.35793 11.79465 1484 ft 4 kts 173°
2026-05-08 05:04 48.35783 11.79466 1473 ft 0 kts 173°
2026-05-08 05:06 48.35773 11.79468 1482 ft 2 kts 173°
2026-05-08 05:06 48.35727 11.79476 1477 ft 13 kts 174°
2026-05-08 05:07 48.35641 11.79490 1482 ft 11 kts 173°
2026-05-08 05:07 48.35567 11.79502 1475 ft 10 kts 173°
2026-05-08 05:07 48.35486 11.79516 1485 ft 15 kts 173°
2026-05-08 05:07 48.35411 11.79480 1477 ft 11 kts 211°
2026-05-08 05:08 48.35319 11.79478 1480 ft 20 kts 173°
2026-05-08 05:08 48.35147 11.79508 1485 ft 27 kts 174°
2026-05-08 05:08 48.34969 11.79539 1474 ft 25 kts 173°
2026-05-08 05:08 48.34801 11.79556 1485 ft 23 kts 187°
2026-05-08 05:09 48.34677 11.79539 1485 ft 9 kts 230°
2026-05-08 05:09 48.34672 11.79418 1485 ft 20 kts 263°
2026-05-08 05:09 48.34650 11.79143 1482 ft 29 kts 263°
2026-05-08 05:09 48.34628 11.78851 1483 ft 28 kts 263°
2026-05-08 05:10 48.34606 11.78561 1485 ft 29 kts 263°
2026-05-08 05:10 48.34559 11.77958 1485 ft 29 kts 263°
2026-05-08 05:10 48.34536 11.77654 1477 ft 29 kts 263°
2026-05-08 05:11 48.34513 11.77350 1485 ft 29 kts 263°
2026-05-08 05:11 48.34490 11.77051 1480 ft 29 kts 264°
2026-05-08 05:11 48.34467 11.76752 1485 ft 29 kts 263°
2026-05-08 05:11 48.34444 11.76462 1485 ft 25 kts 264°
2026-05-08 05:12 48.34424 11.76199 1485 ft 25 kts 263°
2026-05-08 05:12 48.34404 11.75938 1480 ft 26 kts 264°
2026-05-08 05:12 48.34383 11.75666 1485 ft 26 kts 263°
2026-05-08 05:12 48.34366 11.75384 1480 ft 28 kts 273°
2026-05-08 05:13 48.34357 11.75114 1478 ft 20 kts 255°
2026-05-08 05:13 48.34294 11.75081 1474 ft 13 kts 173°
2026-05-08 05:13 48.34156 11.75115 1473 ft 25 kts 158°
2026-05-08 05:13 48.34092 11.75352 1485 ft 35 kts 88°
2026-05-08 05:14 48.34144 11.76094 1481 ft 106 kts 83°
2026-05-08 05:14 48.34250 11.77470 1480 ft 160 kts 83°
2026-05-08 05:14 48.34371 11.79163 2105 ft 163 kts 84°
2026-05-08 05:14 48.34499 11.80855 2893 ft 165 kts 84°
2026-05-08 05:15 48.34641 11.82669 3312 ft 186 kts 84°
2026-05-08 05:15 48.34801 11.84710 3649 ft 209 kts 84°
2026-05-08 05:15 48.34979 11.87011 4077 ft 234 kts 84°
2026-05-08 05:15 48.35173 11.89554 4663 ft 253 kts 83°
2026-05-08 05:16 48.35377 11.92228 5504 ft 261 kts 83°
2026-05-08 05:16 48.35585 11.94975 6403 ft 268 kts 83°
2026-05-08 05:16 48.35968 11.97743 7232 ft 274 kts 68°
2026-05-08 05:16 48.36909 12.00246 8086 ft 278 kts 49°
2026-05-08 05:17 48.38332 12.02208 8946 ft 280 kts 30°
2026-05-08 05:17 48.40097 12.03427 9832 ft 280 kts 11°
2026-05-08 05:17 48.42020 12.03779 10634 ft 280 kts 356°
2026-05-08 05:17 48.44012 12.03772 11275 ft 291 kts 356°
2026-05-08 05:18 48.46059 12.03765 12053 ft 297 kts 356°
2026-05-08 05:18 48.48138 12.03761 12872 ft 301 kts 357°
2026-05-08 05:18 48.50246 12.03762 13685 ft 305 kts 357°
2026-05-08 05:18 48.52384 12.03768 14421 ft 309 kts 357°
2026-05-08 05:19 48.54555 12.04099 14731 ft 332 kts 13°
2026-05-08 05:19 48.56824 12.05201 15033 ft 350 kts 16°
2026-05-08 05:19 48.59157 12.06399 15634 ft 356 kts 17°
2026-05-08 05:19 48.61518 12.07624 16300 ft 361 kts 17°
2026-05-08 05:20 48.63905 12.08870 16981 ft 365 kts 17°
2026-05-08 05:20 48.66319 12.10126 17653 ft 369 kts 17°
2026-05-08 05:20 48.68761 12.11394 18338 ft 373 kts 17°
2026-05-08 05:20 48.71227 12.12669 18926 ft 377 kts 17°
2026-05-08 05:21 48.73717 12.13954 19522 ft 380 kts 16°
2026-05-08 05:21 48.76232 12.15247 20117 ft 383 kts 16°
2026-05-08 05:21 48.78765 12.16550 20708 ft 386 kts 16°
2026-05-08 05:21 48.81317 12.17862 21288 ft 389 kts 16°
2026-05-08 05:22 48.83890 12.19189 21865 ft 392 kts 16°
2026-05-08 05:22 48.86483 12.20529 22422 ft 395 kts 16°
2026-05-08 05:22 48.89099 12.21880 22983 ft 398 kts 16°
2026-05-08 05:22 48.91731 12.23240 23546 ft 401 kts 16°
2026-05-08 05:23 48.94384 12.24614 24015 ft 404 kts 16°
2026-05-08 05:23 48.97014 12.25980 24455 ft 407 kts 16°
2026-05-08 05:23 48.99701 12.27375 24898 ft 409 kts 16°
2026-05-08 05:23 49.02406 12.28784 25334 ft 412 kts 16°
2026-05-08 05:24 49.05123 12.30203 25760 ft 414 kts 16°
2026-05-08 05:24 49.07857 12.31635 26204 ft 417 kts 16°
2026-05-08 05:24 49.10610 12.33073 26666 ft 419 kts 16°
2026-05-08 05:24 49.12437 12.34029 26960 ft 420 kts 16°
2026-05-08 05:25 49.15210 12.35483 27373 ft 423 kts 16°
2026-05-08 05:25 49.17999 12.36951 27779 ft 425 kts 16°
2026-05-08 05:25 49.20804 12.38424 28185 ft 428 kts 15°
2026-05-08 05:25 49.23625 12.39905 28576 ft 430 kts 15°
2026-05-08 05:26 49.26465 12.41403 28963 ft 433 kts 15°
2026-05-08 05:26 49.29310 12.42904 29079 ft 429 kts 15°
2026-05-08 05:26 49.32072 12.44371 29089 ft 412 kts 15°
2026-05-08 05:27 49.37534 12.47261 29240 ft 423 kts 15°
2026-05-08 05:27 49.40331 12.48733 29633 ft 426 kts 15°
2026-05-08 05:27 49.43139 12.50214 30116 ft 426 kts 15°
2026-05-08 05:27 49.45935 12.51692 30572 ft 425 kts 15°
2026-05-08 05:28 49.48735 12.53175 31031 ft 425 kts 15°
2026-05-08 05:28 49.51528 12.54666 31496 ft 424 kts 15°
2026-05-08 05:28 49.54311 12.56154 31978 ft 423 kts 15°
2026-05-08 05:28 49.57087 12.57639 32453 ft 422 kts 15°
2026-05-08 05:29 49.59860 12.59122 32919 ft 422 kts 15°
2026-05-08 05:29 49.62635 12.60608 33067 ft 422 kts 15°
2026-05-08 05:29 49.65407 12.62089 33097 ft 421 kts 15°
2026-05-08 05:30 49.70937 12.65043 33095 ft 420 kts 15°
2026-05-08 05:30 49.76419 12.67987 33096 ft 419 kts 15°
2026-05-08 05:31 49.81919 12.70947 33100 ft 418 kts 15°
2026-05-08 05:31 49.87419 12.73913 33095 ft 418 kts 15°
2026-05-08 05:32 49.92910 12.76892 33095 ft 418 kts 15°
2026-05-08 05:32 49.98400 12.79873 33115 ft 417 kts 15°
2026-05-08 05:33 50.03876 12.82851 33112 ft 417 kts 15°
2026-05-08 05:33 50.09347 12.85830 33108 ft 416 kts 15°
2026-05-08 05:34 50.14812 12.88811 33103 ft 416 kts 15°
2026-05-08 05:34 50.20271 12.91811 33113 ft 416 kts 16°
2026-05-08 05:35 50.25726 12.94817 33105 ft 416 kts 16°
2026-05-08 05:35 50.31037 12.98274 33100 ft 418 kts 23°
2026-05-08 05:36 50.36232 13.02393 33098 ft 418 kts 23°
2026-05-08 05:36 50.41423 13.06518 33095 ft 418 kts 23°
2026-05-08 05:37 50.46622 13.10640 33101 ft 419 kts 23°
2026-05-08 05:37 50.51822 13.14776 33104 ft 419 kts 23°
2026-05-08 05:38 50.57015 13.18930 33108 ft 419 kts 24°
2026-05-08 05:38 50.62199 13.23102 33119 ft 418 kts 24°
2026-05-08 05:39 50.67376 13.27282 33116 ft 418 kts 24°
2026-05-08 05:39 50.72544 13.31447 32895 ft 415 kts 24°
2026-05-08 05:39 50.75099 13.33514 32628 ft 411 kts 24°
2026-05-08 05:40 50.77637 13.35577 32364 ft 409 kts 24°
2026-05-08 05:40 50.80158 13.37629 32103 ft 407 kts 24°
2026-05-08 05:40 50.82663 13.39669 31863 ft 404 kts 24°
2026-05-08 05:40 50.85111 13.41663 31489 ft 399 kts 24°
2026-05-08 05:41 50.87568 13.43664 31009 ft 396 kts 24°
2026-05-08 05:41 50.90038 13.45676 30554 ft 392 kts 24°
2026-05-08 05:41 50.92438 13.47558 30094 ft 387 kts 19°
2026-05-08 05:41 50.94971 13.48877 29637 ft 379 kts
2026-05-08 05:42 50.97534 13.49605 29226 ft 372 kts
2026-05-08 05:42 51.00067 13.50274 28819 ft 367 kts
2026-05-08 05:42 51.02563 13.50944 28441 ft 362 kts
2026-05-08 05:42 51.05030 13.51611 28040 ft 357 kts
2026-05-08 05:43 51.07463 13.52269 27632 ft 353 kts
2026-05-08 05:43 51.09876 13.52922 27227 ft 350 kts
2026-05-08 05:43 51.12261 13.53568 26825 ft 346 kts
2026-05-08 05:43 51.14627 13.54208 26413 ft 344 kts
2026-05-08 05:44 51.16976 13.54845 26002 ft 341 kts
2026-05-08 05:44 51.19313 13.55479 25576 ft 340 kts
2026-05-08 05:44 51.21639 13.56110 25155 ft 338 kts
2026-05-08 05:44 51.23957 13.56738 24719 ft 338 kts
2026-05-08 05:45 51.26273 13.57362 24298 ft 336 kts
2026-05-08 05:45 51.28547 13.57416 24200 ft 321 kts 347°
2026-05-08 05:45 51.30712 13.56568 24019 ft 322 kts 342°
2026-05-08 05:45 51.32909 13.55613 23253 ft 328 kts 342°
2026-05-08 05:46 51.35083 13.54678 22814 ft 321 kts 342°
2026-05-08 05:46 51.37237 13.53757 22409 ft 319 kts 342°
2026-05-08 05:46 51.39375 13.52844 22003 ft 318 kts 342°
2026-05-08 05:46 51.41507 13.51932 21593 ft 316 kts 342°
2026-05-08 05:47 51.43631 13.51021 21198 ft 316 kts 342°
2026-05-08 05:47 51.45723 13.50121 20799 ft 315 kts 342°
2026-05-08 05:47 51.47835 13.49213 20404 ft 315 kts 342°
2026-05-08 05:47 51.49949 13.48301 20004 ft 315 kts 342°
2026-05-08 05:48 51.52068 13.47384 19618 ft 315 kts 342°
2026-05-08 05:48 51.54187 13.46466 19216 ft 316 kts 342°
2026-05-08 05:48 51.56311 13.45545 18817 ft 316 kts 342°
2026-05-08 05:48 51.58436 13.44625 18418 ft 316 kts 342°
2026-05-08 05:49 51.60561 13.43702 17986 ft 316 kts 343°
2026-05-08 05:49 51.62679 13.42781 17593 ft 315 kts 343°
2026-05-08 05:49 51.64792 13.41862 17206 ft 314 kts 343°
2026-05-08 05:49 51.66896 13.40945 16819 ft 313 kts 343°
2026-05-08 05:50 51.68993 13.40028 16441 ft 312 kts 343°
2026-05-08 05:50 51.71083 13.39115 16070 ft 311 kts 343°
2026-05-08 05:50 51.73174 13.38206 15693 ft 311 kts 343°
2026-05-08 05:50 51.75257 13.37299 15322 ft 310 kts 343°
2026-05-08 05:51 51.77338 13.36390 14951 ft 309 kts 343°
2026-05-08 05:51 51.79413 13.35481 14576 ft 309 kts 343°
2026-05-08 05:51 51.81488 13.34571 14200 ft 309 kts 343°
2026-05-08 05:51 51.83534 13.33671 13813 ft 309 kts 343°
2026-05-08 05:52 51.85604 13.32760 13423 ft 308 kts 344°
2026-05-08 05:52 51.87670 13.31854 13040 ft 307 kts 344°
2026-05-08 05:52 51.89723 13.30951 12662 ft 305 kts 344°
2026-05-08 05:52 51.91763 13.30052 12275 ft 303 kts 344°
2026-05-08 05:53 51.93792 13.29159 11899 ft 301 kts 344°
2026-05-08 05:53 51.95808 13.28274 11517 ft 300 kts 344°
2026-05-08 05:53 51.97817 13.27390 11134 ft 299 kts 344°
2026-05-08 05:53 51.99818 13.26509 10744 ft 298 kts 345°
2026-05-08 05:54 52.01815 13.25629 10357 ft 297 kts 344°
2026-05-08 05:54 52.03784 13.24759 10151 ft 288 kts 344°
2026-05-08 05:54 52.05695 13.23910 10151 ft 283 kts 344°
2026-05-08 05:54 52.07595 13.23060 10155 ft 283 kts 344°
2026-05-08 05:55 52.09496 13.22210 10155 ft 283 kts 344°
2026-05-08 05:55 52.11398 13.21360 10157 ft 283 kts 344°
2026-05-08 05:55 52.13300 13.20512 10160 ft 283 kts 344°
2026-05-08 05:55 52.15199 13.19666 10143 ft 282 kts 344°
2026-05-08 05:56 52.17082 13.18825 9424 ft 281 kts 344°
2026-05-08 05:56 52.18946 13.17994 8651 ft 282 kts 345°
2026-05-08 05:56 52.20871 13.17592 7879 ft 280 kts
2026-05-08 05:56 52.22612 13.18865 7196 ft 276 kts 44°
2026-05-08 05:57 52.23502 13.21482 7075 ft 261 kts 80°
2026-05-08 05:57 52.23273 13.24277 7005 ft 246 kts 118°
2026-05-08 05:57 52.22099 13.26128 6930 ft 233 kts 157°
2026-05-08 05:57 52.20534 13.26371 6675 ft 229 kts 191°
2026-05-08 05:58 52.19077 13.25248 6136 ft 237 kts 222°
2026-05-08 05:58 52.18145 13.23077 5855 ft 236 kts 251°
2026-05-08 05:58 52.17978 13.20375 5638 ft 246 kts 282°
2026-05-08 05:58 52.18678 13.17863 5434 ft 245 kts 313°
2026-05-08 05:59 52.20047 13.16272 5167 ft 243 kts 342°
2026-05-08 05:59 52.21684 13.15760 4902 ft 237 kts 353°
2026-05-08 05:59 52.23291 13.15375 4686 ft 230 kts 353°
2026-05-08 05:59 52.24848 13.15000 4489 ft 222 kts 356°
2026-05-08 06:00 52.26319 13.15352 4312 ft 211 kts 28°
2026-05-08 06:00 52.27357 13.16902 4046 ft 207 kts 61°
2026-05-08 06:00 52.27895 13.19080 3746 ft 207 kts 69°
2026-05-08 06:00 52.28413 13.21273 3481 ft 206 kts 69°
2026-05-08 06:01 52.28933 13.23427 3244 ft 203 kts 69°
2026-05-08 06:01 52.29447 13.25563 2977 ft 202 kts 69°
2026-05-08 06:01 52.29961 13.27700 2706 ft 202 kts 69°
2026-05-08 06:01 52.30471 13.29824 2421 ft 198 kts 69°
2026-05-08 06:02 52.30954 13.31835 2174 ft 184 kts 69°
2026-05-08 06:02 52.31394 13.33669 1930 ft 162 kts 69°
2026-05-08 06:02 52.31781 13.35282 1724 ft 143 kts 69°
2026-05-08 06:02 52.32128 13.36731 1510 ft 133 kts 69°
2026-05-08 06:03 52.32461 13.38124 1329 ft 130 kts 69°
2026-05-08 06:03 52.32788 13.39490 1156 ft 128 kts 69°
2026-05-08 06:03 52.33112 13.40845 969 ft 128 kts 68°
2026-05-08 06:03 52.33436 13.42203 798 ft 127 kts 68°
2026-05-08 06:04 52.33759 13.43555 634 ft 128 kts 67°
2026-05-08 06:04 52.34077 13.44892 470 ft 127 kts 68°
2026-05-08 06:04 52.34395 13.46241 301 ft 127 kts 68°
2026-05-08 06:04 52.34715 13.47576 161 ft 121 kts 68°
2026-05-08 06:05 52.34976 13.48676 154 ft 81 kts 68°
2026-05-08 06:05 52.35127 13.49307 154 ft 48 kts 69°
2026-05-08 06:05 52.35239 13.49750 154 ft 35 kts 59°
2026-05-08 06:05 52.35379 13.49999 154 ft 21 kts 39°
2026-05-08 06:06 52.35457 13.50101 154 ft 13 kts 39°
2026-05-08 06:06 52.35536 13.50206 154 ft 16 kts 38°
2026-05-08 06:06 52.35612 13.50350 154 ft 16 kts 69°
2026-05-08 06:06 52.35657 13.50538 155 ft 19 kts 69°
2026-05-08 06:07 52.35707 13.50751 155 ft 21 kts 69°
2026-05-08 06:07 52.35760 13.50829 155 ft 10 kts 330°
2026-05-08 06:07 52.35856 13.50772 155 ft 17 kts 338°
2026-05-08 06:07 52.35989 13.50688 155 ft 25 kts 339°
2026-05-08 06:08 52.36166 13.50576 155 ft 28 kts 338°
2026-05-08 06:08 52.36344 13.50463 156 ft 22 kts 339°
2026-05-08 06:08 52.36483 13.50376 155 ft 14 kts 339°
2026-05-08 06:08 52.36530 13.50446 155 ft 10 kts 69°
2026-05-08 06:09 52.36541 13.50496 155 ft 0 kts 69°